map of KSCD home
Great Circle Mapper logo
KSCD - Airport
Location
City:  Sylacauga, Alabama, United States
Name:Merkel Field Sylacauga Municipal Airport
ICAO:KSCD
FAA LID:SCD

Details
Type:Airport (Airfield)
Use:Public/Civil
Latitude:3310'19"N (33.171833)
Longitude:8618'20"W (-86.305527)
Datum:WGS 1984
Elevation:568 ft (173 m)
Variation:3.61W (WMM2015 magnetic declination)
-0.09 annual change
Runways:1
Longest:5390 × 100 ft (1643 × 30.5 m), paved

Time
Time Zone:UTC-6 (DST-5)
Local Time:

Weather
METAR:KSCD 281755Z AUTO 26009KT 10SM SCT032 SCT046 BKN065 28/24 A3004 RMK AO2 LTG DSNT SW AND NW P0002 60002 T02760241 10306 20235

Related Locations
Nearby:
Farthest:MQZ: 11210 mi / 18041 km
Margaret River [Margaret River Airport], WA, AU

Find:

   beyond  
but within

Other Information
Maps:
NOTAMs:
Links:
Sources:

  
flag of United States
flag of Alabama
  

Sectional Chart

Flight Planning
at skyvector.com

Satellite Image

Google Maps Satellite view

 

Copyright © 2004-2016 Karl L. Swartz. All rights reserved.
The Great Circle Mapper name and logo are trademarks of the Great Circle Mapper.
All other trademarks mentioned herein belong to their respective owners.
Please see credits for attibutions and further copyright information.

  Follow gcmap on Facebook Follow gcmap on Twitter Follow gcmap on Google+ GCmap on LinkedIn

hCard Microformat

Geo Microformat